Weather History for Asheville, NC

Change the Weather History Date:

Thursday, February 13, 2014

  Actual Average Record
Temperature  
Mean Temperature 32 °F 40 °F  
Max Temperature 36 °F 51 °F 75 °F (1949)
Min Temperature 27 °F 29 °F 2 °F (1905)
Degree Days  
Heating Degree Days 33 25  
Month to date heating degree days 353 339  
Since 1 July heating degree days 2992 2866  
Cooling Degree Days 0 0  
Month to date cooling degree days 0 0  
Year to date cooling degree days 0 0  
Moisture  
Dew Point 26 °F    
Average Humidity 85    
Maximum Humidity 100    
Minimum Humidity 70    
Precipitation  
Precipitation 0.01 in 0.13 in 2.79 in (1984)
Month to date precipitation 2.14 1.72  
Year to date precipitation 4.47 5.39  
Snow  
Snow 0.20 in 0.10 in 6.50 in (1960)
Month to date snowfall 7.9 1.1  
Since 1 July snowfall 9.4 6.2  
Snow Depth 7.00 in    
Sea Level Pressure  
Sea Level Pressure 29.66 in    
Wind  
Wind Speed 10 mph (NNW)    
Max Wind Speed 24 mph    
Max Gust Speed 32 mph    
Visibility 5 miles    
Events Snow    
T = Trace of Precipitation, MM = Missing Value Source: NWS Daily Summary

Daily Weather History Graph

Daily Weather History Graph

Search for Another Location

Airport:

Trip Planner

Search our weather history database for the weather conditions in past years. The results will help you decide how hot, cold, wet, or windy it might be!

Date:

Astronomy

Feb. 13, 2014 Rise Set
Actual Time 7:18 AM EST 6:10 PM EST
Civil Twilight 6:52 AM EST 6:36 PM EST
Nautical Twilight 6:22 AM EST 7:06 PM EST
Astronomical Twilight 5:53 AM EST 7:36 PM EST
Moon 5:17 PM EST (2/13) 6:10 AM EST (2/13)
Length of Visible Light 11h 43m
Length of Day
10h 51m
Waxing Gibbous, 98% of the Moon is Illuminated
Feb 13
Waxing Gibbous
Feb 14
Full
Feb 22
Last Quarter
Mar 1
New
Mar 8
First Quarter

Hourly Weather History & Observations

Time (EST) Temp. Windchill Dew Point Humidity Pressure Visibility Wind Dir Wind Speed Gust Speed Precip Events Conditions
12:54 AM 27.0 °F - 26.1 °F 96% 29.78 in 6.0 mi Calm Calm - 0.00 in   Overcast
1:54 AM 28.0 °F - 26.1 °F 92% 29.75 in 7.0 mi Calm Calm - N/A   Overcast
2:17 AM 28.4 °F - 26.6 °F 93% 29.68 in 2.5 mi Calm Calm - 0.00 in Snow Light Snow
2:47 AM 26.6 °F 21.2 °F 26.6 °F 100% 29.66 in 4.0 mi North 4.6 mph - 0.01 in Snow Light Snow
2:54 AM 28.0 °F 20.8 °F 26.1 °F 92% 29.70 in 5.0 mi North 6.9 mph - 0.01 in Snow Light Snow
3:54 AM 28.0 °F 22.8 °F 26.1 °F 92% 29.69 in 7.0 mi NNW 4.6 mph - 0.00 in   Overcast
4:24 AM 28.4 °F 21.2 °F 26.6 °F 93% 29.63 in 9.0 mi NNW 6.9 mph - N/A   Overcast
4:34 AM 28.4 °F 21.2 °F 26.6 °F 93% 29.62 in 9.0 mi NNW 6.9 mph - N/A   Overcast
4:54 AM 27.0 °F 20.5 °F 26.1 °F 96% 29.67 in 8.0 mi NW 5.8 mph - N/A   Overcast
5:54 AM 28.0 °F 18.6 °F 25.0 °F 88% 29.66 in 3.0 mi NNW 10.4 mph - 0.00 in Snow Light Snow
6:02 AM 28.4 °F 19.7 °F 26.6 °F 93% 29.61 in 2.5 mi NNW 9.2 mph - 0.00 in Snow Light Snow
6:12 AM 26.6 °F 16.2 °F 24.8 °F 93% 29.61 in 2.5 mi NNW 11.5 mph - 0.00 in Snow Light Snow
6:52 AM 28.4 °F 20.4 °F 26.6 °F 93% 29.61 in 2.0 mi North 8.1 mph - 0.00 in Snow Light Snow
6:54 AM 28.0 °F 19.3 °F 26.1 °F 92% 29.65 in 2.0 mi North 9.2 mph - 0.00 in Snow Light Snow
7:14 AM 28.4 °F 20.4 °F 26.6 °F 93% 29.61 in 2.0 mi North 8.1 mph - 0.00 in Snow Light Snow
7:54 AM 28.0 °F 18.6 °F 25.0 °F 88% 29.65 in 2.0 mi North 10.4 mph 16.1 mph 0.00 in   Overcast
8:10 AM 28.4 °F 21.2 °F 24.8 °F 86% 29.61 in 2.0 mi North 6.9 mph - 0.00 in Snow Light Snow
8:21 AM 28.4 °F 19.1 °F 24.8 °F 86% 29.61 in 1.8 mi North 10.4 mph 18.4 mph 0.00 in Snow Light Snow
8:35 AM 28.4 °F 18.0 °F 24.8 °F 86% 29.61 in 2.0 mi North 12.7 mph 19.6 mph 0.00 in Snow Light Snow
8:44 AM 28.4 °F 17.0 °F 24.8 °F 86% 29.61 in 2.0 mi North 15.0 mph 19.6 mph 0.00 in   Overcast
8:54 AM 28.0 °F 16.1 °F 25.0 °F 88% 29.65 in 2.0 mi North 16.1 mph 21.9 mph 0.00 in   Overcast
9:54 AM 28.9 °F 17.3 °F 24.1 °F 82% 29.67 in 2.0 mi North 16.1 mph 32.2 mph 0.00 in Snow Light Snow
10:08 AM 28.4 °F 17.5 °F 24.8 °F 86% 29.63 in 2.0 mi North 13.8 mph 21.9 mph 0.00 in   Overcast
10:18 AM 28.4 °F 15.8 °F 24.8 °F 86% 29.63 in 2.0 mi North 18.4 mph 26.5 mph 0.00 in   Overcast
10:41 AM 28.4 °F 16.2 °F 24.8 °F 86% 29.63 in 2.0 mi North 17.3 mph 26.5 mph 0.00 in   Overcast
10:54 AM 28.9 °F 19.2 °F 25.0 °F 85% 29.68 in 2.0 mi North 11.5 mph 24.2 mph 0.00 in   Overcast
11:24 AM 30.2 °F 18.9 °F 26.6 °F 86% 29.63 in 2.0 mi North 16.1 mph 26.5 mph 0.00 in Snow Light Snow
11:33 AM 30.2 °F 18.1 °F 24.8 °F 80% 29.64 in 2.0 mi North 18.4 mph 27.6 mph 0.00 in Snow Light Snow
11:40 AM 30.2 °F 18.1 °F 24.8 °F 80% 29.63 in 2.0 mi NNW 18.4 mph 28.8 mph 0.00 in Snow Light Snow
11:54 AM 30.9 °F 19.4 °F 26.1 °F 82% 29.67 in 2.0 mi North 17.3 mph 28.8 mph 0.00 in Snow Light Snow
12:11 PM 32.0 °F 20.8 °F 26.6 °F 80% 29.63 in 2.0 mi North 17.3 mph 24.2 mph 0.00 in Snow Light Snow
12:54 PM 32.0 °F 20.5 °F 26.1 °F 79% 29.63 in 2.0 mi North 18.4 mph 24.2 mph 0.00 in   Overcast
1:26 PM 35.6 °F 24.8 °F 28.4 °F 75% 29.60 in 2.0 mi North 19.6 mph 27.6 mph 0.00 in   Mostly Cloudy
1:33 PM 35.6 °F 25.2 °F 28.4 °F 75% 29.61 in 10.0 mi North 18.4 mph 27.6 mph 0.00 in   Mostly Cloudy
1:54 PM 35.1 °F 25.2 °F 27.0 °F 72% 29.64 in 10.0 mi North 16.1 mph 27.6 mph 0.00 in   Overcast
2:29 PM 35.6 °F 25.9 °F 26.6 °F 70% 29.61 in 10.0 mi North 16.1 mph 21.9 mph N/A   Mostly Cloudy
2:46 PM 35.6 °F 26.6 °F 28.4 °F 75% 29.61 in 10.0 mi North 13.8 mph 23.0 mph N/A   Mostly Cloudy
2:54 PM 35.1 °F 25.5 °F 28.0 °F 76% 29.64 in 10.0 mi North 15.0 mph 25.3 mph N/A   Overcast
3:54 PM 35.1 °F 27.4 °F 28.9 °F 78% 29.67 in 10.0 mi North 10.4 mph 23.0 mph N/A   Overcast
4:54 PM 35.1 °F 29.3 °F 28.9 °F 78% 29.70 in 10.0 mi NNW 6.9 mph 19.6 mph N/A   Overcast
5:54 PM 34.0 °F - 28.9 °F 82% 29.72 in 10.0 mi Calm Calm - N/A   Overcast
6:34 PM 33.8 °F 27.7 °F 28.4 °F 81% 29.70 in 10.0 mi North 6.9 mph - N/A   Mostly Cloudy
6:54 PM 33.1 °F 26.9 °F 28.0 °F 82% 29.74 in 10.0 mi North 6.9 mph - N/A   Partly Cloudy
7:54 PM 32.0 °F 26.4 °F 26.1 °F 79% 29.75 in 10.0 mi North 5.8 mph - N/A   Clear
8:54 PM 30.9 °F 22.2 °F 25.0 °F 79% 29.75 in 10.0 mi North 10.4 mph - N/A   Clear
9:54 PM 30.9 °F 21.7 °F 24.1 °F 76% 29.75 in 10.0 mi NNW 11.5 mph - N/A   Clear
10:54 PM 30.0 °F 21.7 °F 23.0 °F 75% 29.77 in 10.0 mi NNW 9.2 mph - N/A   Clear
11:54 PM 28.9 °F 19.2 °F 21.9 °F 75% 29.76 in 10.0 mi NNW 11.5 mph - N/A   Clear